Location: Bergen
(60.3910°N, 5.3250°E)
Time: 05:32:29
(UTC+02:00)

ISS - Visible Passes

Search period start: 26 September 2017 00:00
Search period end: 06 October 2017 00:00
Orbit: 401 x 407 km, 51.6° (Epoch: 26 September)

Date Brightness Start Highest point End Pass type
(mag) Time Alt. Az. Time Alt. Az. Time Alt. Az.
29 Sep -1.5 21:04:12 10° S 21:05:12 12° SSE 21:05:12 12° SSE visible
30 Sep -1.4 21:46:53 10° SW 21:47:36 13° SSW 21:47:36 13° SSW visible
01 Oct -1.8 20:54:54 10° SSW 20:56:58 16° SSE 20:57:16 16° SSE visible
02 Oct -1.6 20:03:08 10° SSW 20:04:49 13° SSE 20:06:30 10° SE visible
02 Oct -1.6 21:38:06 10° SW 21:39:31 16° SSW 21:39:31 16° SSW visible
03 Oct -1.9 20:45:56 10° SW 20:48:15 18° S 20:49:05 16° SSE visible
04 Oct -1.7 19:53:54 10° SSW 19:56:02 16° SSE 19:58:11 10° SE visible
04 Oct -1.7 21:29:27 10° SW 21:31:15 17° SSW 21:31:15 17° SSW visible
05 Oct -1.8 20:37:08 10° SW 20:39:28 18° S 20:40:45 15° SSE visible
